When you browse on this site, cookies collect data to enhance your experience and personalize the content and advertising you see.
Visit our Privacy Policy to learn more. By continuing to use the site, you agree to this use of cookies and data.
  • In Lithuania
  • List of Countries
  • For 7 days
  • Water Temperature
  • Weather Map
  • Weather Widgets
  • user-avatar
    Login

    Hourly Weather Phuket

    Today, 17 August, Saturday

    Time Temperature Precipitation Wind Pressure Humidity
    00:00 +30°C° 0.3 mm 7 mps 753 mmHg 74%
    01:00 +32°C° 0 mm 5 mps 753 mmHg 73%
    02:00 +30°C° 0.6 mm 6 mps 753 mmHg 74%
    03:00 +30°C° 0.6 mm 6 mps 752 mmHg 74%
    04:00 +30°C° 0.6 mm 6 mps 752 mmHg 75%
    05:00 +30°C° 0.5 mm 5 mps 752 mmHg 74%
    06:00 +30°C° 0.5 mm 5 mps 752 mmHg 73%
    07:00 +30°C° 0 mm 3 mps 753 mmHg 75%
    08:00 +30°C° 1.7 mm 3 mps 753 mmHg 73%
    09:00 +30°C° 1.7 mm 2 mps 753 mmHg 71%
    10:00 +31°C° 1.7 mm 2 mps 754 mmHg 69%
    11:00 +31°C° 0 mm 2 mps 753 mmHg 69%
    12:00 +31°C° 0 mm 3 mps 753 mmHg 68%
    13:00 +31°C° 0 mm 2 mps 753 mmHg 64%
    14:00 +31°C° 0 mm 2 mps 753 mmHg 63%
    15:00 +31°C° 0 mm 1 mps 752 mmHg 62%
    16:00 +31°C° 0 mm 1 mps 752 mmHg 61%
    17:00 +31°C° 0 mm 1 mps 752 mmHg 63%
    18:00 +31°C° 0 mm 2 mps 752 mmHg 64%
    19:00 +31°C° 0 mm 2 mps 753 mmHg 66%
    20:00 +31°C° 0 mm 2 mps 753 mmHg 67%
    21:00 +31°C° 0 mm 1 mps 753 mmHg 68%
    22:00 +30°C° 0 mm 1 mps 754 mmHg 69%
    23:00 +30°C° 0 mm 1 mps 754 mmHg 69%

    Tomorrow, 18 August, Sunday

    Time Temperature Precipitation Wind Pressure Humidity
    00:00 +30°C° 0 mm 1 mps 754 mmHg 70%
    01:00 +30°C° 0 mm 1 mps 754 mmHg 70%
    02:00 +30°C° 0 mm 1 mps 753 mmHg 71%
    03:00 +30°C° 0 mm 1 mps 753 mmHg 72%
    04:00 +29°C° 0 mm 1 mps 753 mmHg 73%
    05:00 +29°C° 0 mm 1 mps 753 mmHg 73%
    06:00 +29°C° 0 mm 1 mps 753 mmHg 73%
    07:00 +29°C° 0 mm 1 mps 754 mmHg 73%
    08:00 +30°C° 0 mm 1 mps 754 mmHg 72%
    09:00 +30°C° 0 mm 1 mps 754 mmHg 71%
    10:00 +30°C° 0 mm 1 mps 755 mmHg 70%
    11:00 +30°C° 0 mm 1 mps 754 mmHg 69%
    12:00 +30°C° 0 mm 1 mps 754 mmHg 68%
    13:00 +31°C° 0 mm 1 mps 754 mmHg 67%
    14:00 +31°C° 0 mm 1 mps 753 mmHg 65%
    15:00 +31°C° 0 mm 2 mps 752 mmHg 64%
    16:00 +31°C° 0 mm 2 mps 752 mmHg 63%
    17:00 +31°C° 0 mm 3 mps 752 mmHg 65%
    18:00 +31°C° 0 mm 3 mps 752 mmHg 67%
    19:00 +31°C° 0 mm 3 mps 753 mmHg 69%
    20:00 +31°C° 0 mm 3 mps 753 mmHg 69%
    21:00 +30°C° 0 mm 2 mps 754 mmHg 69%
    22:00 +30°C° 0 mm 2 mps 755 mmHg 69%
    23:00 +30°C° 0 mm 2 mps 754 mmHg 70%

    Day after tomorrow, 19 August, Monday

    Time Temperature Precipitation Wind Pressure Humidity
    00:00 +30°C° 0 mm 2 mps 754 mmHg 71%
    01:00 +30°C° 0 mm 3 mps 754 mmHg 71%
    02:00 +30°C° 0 mm 2 mps 753 mmHg 71%
    03:00 +30°C° 0 mm 2 mps 753 mmHg 71%
    04:00 +30°C° 0 mm 2 mps 753 mmHg 70%
    05:00 +30°C° 0 mm 2 mps 753 mmHg 70%
    06:00 +30°C° 0 mm 2 mps 754 mmHg 70%
    07:00 +29°C° 0 mm 2 mps 754 mmHg 70%
    08:00 +30°C° 0 mm 1 mps 754 mmHg 69%
    09:00 +30°C° 0 mm 1 mps 754 mmHg 67%
    10:00 +30°C° 0 mm 1 mps 755 mmHg 65%
    11:00 +31°C° 0 mm 2 mps 754 mmHg 65%
    12:00 +31°C° 0 mm 2 mps 754 mmHg 64%
    13:00 +31°C° 0 mm 3 mps 754 mmHg 64%
    14:00 +31°C° 0 mm 3 mps 753 mmHg 64%
    15:00 +31°C° 0 mm 3 mps 752 mmHg 64%
    16:00 +32°C° 0 mm 4 mps 752 mmHg 64%
    17:00 +31°C° 0 mm 3 mps 752 mmHg 66%
    18:00 +31°C° 0 mm 3 mps 752 mmHg 68%
    19:00 +30°C° 0 mm 3 mps 752 mmHg 69%
    20:00 +30°C° 0 mm 3 mps 753 mmHg 70%
    21:00 +30°C° 0 mm 3 mps 754 mmHg 71%
    22:00 +30°C° 0 mm 3 mps 754 mmHg 71%
    23:00 +30°C° 0 mm 3 mps 754 mmHg 72%

    20 August, Tuesday

    Time Temperature Precipitation Wind Pressure Humidity
    00:00 +30°C° 0 mm 3 mps 754 mmHg 72%
    01:00 +30°C° 0 mm 3 mps 754 mmHg 72%
    02:00 +30°C° 0 mm 3 mps 753 mmHg 72%
    03:00 +30°C° 0 mm 3 mps 753 mmHg 73%
    04:00 +30°C° 0 mm 3 mps 752 mmHg 73%
    05:00 +30°C° 0 mm 3 mps 753 mmHg 73%
    06:00 +30°C° 0 mm 3 mps 753 mmHg 73%
    07:00 +30°C° 0 mm 3 mps 753 mmHg 73%
    08:00 +30°C° 0 mm 3 mps 754 mmHg 72%
    09:00 +30°C° 0 mm 3 mps 754 mmHg 72%
    10:00 +30°C° 0 mm 3 mps 754 mmHg 71%
    11:00 +32°C° 0 mm 4 mps 754 mmHg 71%
    12:00 +32°C° 0 mm 4 mps 753 mmHg 71%
    13:00 +32°C° 0 mm 4 mps 753 mmHg 70%
    14:00 +32°C° 0.1 mm 4 mps 752 mmHg 71%
    15:00 +32°C° 0.1 mm 4 mps 752 mmHg 71%
    16:00 +32°C° 0.1 mm 5 mps 751 mmHg 72%
    17:00 +30°C° 0 mm 4 mps 752 mmHg 73%
    18:00 +30°C° 0 mm 4 mps 752 mmHg 74%
    19:00 +30°C° 0 mm 4 mps 752 mmHg 74%
    20:00 +30°C° 0.2 mm 4 mps 753 mmHg 75%
    21:00 +30°C° 0.2 mm 4 mps 753 mmHg 75%
    22:00 +30°C° 0.2 mm 4 mps 754 mmHg 75%
    23:00 +30°C° 0.1 mm 4 mps 754 mmHg 75%

    21 August, Wednesday

    Time Temperature Precipitation Wind Pressure Humidity
    00:00 +30°C° 0.1 mm 5 mps 753 mmHg 74%
    01:00 +30°C° 0.1 mm 5 mps 753 mmHg 74%
    02:00 +30°C° 0.3 mm 5 mps 753 mmHg 74%
    03:00 +30°C° 0.3 mm 5 mps 752 mmHg 74%
    04:00 +30°C° 0.3 mm 5 mps 752 mmHg 74%
    05:00 +30°C° 0.2 mm 5 mps 752 mmHg 74%
    06:00 +30°C° 0.2 mm 5 mps 753 mmHg 75%
    07:00 +30°C° 0.2 mm 4 mps 753 mmHg 75%
    08:00 +30°C° 0.1 mm 4 mps 753 mmHg 74%
    09:00 +30°C° 0.1 mm 4 mps 753 mmHg 74%
    10:00 +30°C° 0.1 mm 4 mps 754 mmHg 73%
    11:00 +32°C° 0 mm 4 mps 753 mmHg 72%
    12:00 +32°C° 0 mm 4 mps 753 mmHg 71%
    13:00 +32°C° 0 mm 4 mps 753 mmHg 71%
    14:00 +32°C° 0.1 mm 4 mps 752 mmHg 71%
    15:00 +32°C° 0.1 mm 4 mps 752 mmHg 72%
    16:00 +32°C° 0.1 mm 5 mps 751 mmHg 72%
    17:00 +30°C° 0.1 mm 4 mps 751 mmHg 73%
    18:00 +30°C° 0.1 mm 4 mps 752 mmHg 74%
    19:00 +30°C° 0.1 mm 4 mps 752 mmHg 74%
    20:00 +30°C° 0.2 mm 4 mps 753 mmHg 75%
    21:00 +30°C° 0.2 mm 4 mps 753 mmHg 76%
    22:00 +30°C° 0.2 mm 4 mps 754 mmHg 76%
    23:00 +30°C° 0.4 mm 4 mps 754 mmHg 76%

    22 August, Thursday

    Time Temperature Precipitation Wind Pressure Humidity
    00:00 +30°C° 0.4 mm 4 mps 753 mmHg 76%
    01:00 +30°C° 0.4 mm 5 mps 753 mmHg 76%
    02:00 +30°C° 0.2 mm 5 mps 753 mmHg 76%
    03:00 +30°C° 0.2 mm 5 mps 752 mmHg 75%
    04:00 +30°C° 0.2 mm 5 mps 752 mmHg 75%
    05:00 +30°C° 0.1 mm 5 mps 752 mmHg 75%
    06:00 +30°C° 0.1 mm 5 mps 753 mmHg 75%
    07:00 +30°C° 0.1 mm 4 mps 753 mmHg 74%
    08:00 +30°C° 0 mm 4 mps 753 mmHg 74%
    09:00 +30°C° 0 mm 4 mps 754 mmHg 74%
    10:00 +31°C° 0 mm 3 mps 754 mmHg 73%
    11:00 +31°C° 0 mm 3 mps 753 mmHg 72%
    12:00 +31°C° 0 mm 2 mps 753 mmHg 70%
    13:00 +31°C° 0 mm 2 mps 752 mmHg 68%
    14:00 +31°C° 0 mm 2 mps 752 mmHg 68%
    15:00 +31°C° 0 mm 2 mps 751 mmHg 68%
    16:00 +31°C° 0 mm 2 mps 751 mmHg 68%
    17:00 +31°C° 0 mm 2 mps 751 mmHg 68%
    18:00 +31°C° 0 mm 2 mps 752 mmHg 69%
    19:00 +31°C° 0 mm 2 mps 752 mmHg 70%
    20:00 +31°C° 0 mm 2 mps 752 mmHg 70%
    21:00 +31°C° 0 mm 1 mps 753 mmHg 71%
    22:00 +30°C° 0 mm 1 mps 754 mmHg 72%
    23:00 +30°C° 0 mm 1 mps 754 mmHg 71%
    Show more